Zurück zum Katalog

FREGAT DEB

LostUNKNOWN
NORAD 46022·DEBRIS·🇷🇺 Russia

Gestartet Jul 18, 2011 von Baikonur Cosmodrome

Loading…

Nächste Überflüge (nächste 24 Stunden)

TLE

VeraltetSource: Space-Track

Epoche: Mar 31, 2022, 06:30 UTC

1 46022U 11037HZ  22090.27132608  .02338093  00000-0  63865+0 0  9993
2 46022  51.2931  81.2648 1513815 341.3536  13.7128 11.95870027  3695

Verfolge FREGAT DEB in Echtzeit mit AllMySat

Download on the App Store